Время (UTC), дата Ветер
(°,м/с) 
Видим.   Явления Облачность Т
(°С)
Тd
(°С)
f(%) Тe
(°С)
Pmin
(гПа)
dP
(гПа)
Po
(мм)
O2
(г/м3)
Тmin Tmax R s Состояние
почвы
00 01.05.10 тихо ()   10 км    ясно 
+10.4 +5.1 70 +10  1016.4  -0.4  760  294           
03 01.05.10 030 (СВ) 10 км    ясно 
+8.2 +4.6 78 +9  1016.8  0.4  760  297           
06 01.05.10 080 (В) 10 км    ясно 
+15.6 +5.6 51 +17  1016.8  0.1  760  289  +7.9         
09 01.05.10 110 (В) 10 км    1/1 1000 м 
[Cu hum]
+20.4 +6.1 39 +20  1016.6  -0.1  760  284           
12 01.05.10 060 (СВ) 10 км    3/1 1000 м верхняя 
[Cu hum|Ci fib]
+22.2 +5.1 33 +22  1015.7  -0.9  759  282           
15 01.05.10 050 (СВ) 10 км    3/3 1000 м 
[Sc diur, vesp]
+21.4 +5.3 35 +21  1015.6  -0.1  759  283           
18 01.05.10 010 (С) 10 км    ясно 
+17.4 +5.1 44 +19  1016.1  0.4  759  287    +23       
21 01.05.10 080 (В) 10 км    ясно 
+14.5 +6.2 57 +15  1016.4  0.2  760  290           
00 02.05.10 050 (СВ) 10 км    ясно 
+12 +7 71 +13  1017.2  0.8  760  292           
03 02.05.10 тихо ()   10 км    ясно 
+9.5 +6.7 83 +10  1017.2  760  295           
06 02.05.10 050 (СВ) 10 км    ясно 
+15.4 +6.4 55 +15  1017.2  0.1  760  289  +9.5         
09 02.05.10 090 (В) 10 км    ясно 
+20.2 +5.5 38 +20  1016.8  -0.3  760  284           
12 02.05.10 090 (В) 10 км    ясно 
+21.7 +7.7 40 +22  1015.2  -1.6  759  282           
15 02.05.10 090 (В) 10 км    ясно 
+20.2 +6.8 42 +20  1014.8  -0.4  759  284           
18 02.05.10 090 (В) 10 км    ясно 
+15.8 +7.4 57 +16  1015.7  0.8  759  288    +22.4       
21 02.05.10 080 (В) 10 км    ясно 
+13.5 +7.4 67 +14  1015.5  -0.3  759  290           
00 03.05.10 060 (СВ) 10 км    ясно 
+10.9 +8 82 +11  1015.4  -0.1  759  293           
03 03.05.10 060 (СВ) 10 км    1/0 верхняя 
[Ci fib]
+10 +8.8 92 +10  1015.9  0.5  759  294           
06 03.05.10 100 (В) 10 км    9/0 верхняя 
[Ci]
+15.6 +7.4 58 +15  1016.4  0.6  760  288  +9.8         
09 03.05.10 100 (В) 10 км    10/3 1500 м средняя, верхняя 
[Sc diur, vesp|Ac trans|Ci fib]
+19.3 +7.8 47 +19  1016.4  760  285           
12 03.05.10 080 (В) 10 км    10/5 1000 м средняя, верхняя 
[Sc|Ac trans|Ci fib]
+18.6 +8.8 53 +19  1016.5  0.1  760  285           
15 03.05.10 070 (В) 10 км    9/4 1000 м средняя 
[Sc|Ac trans]
+17.4 +8.5 56 +17  1016.5  760  286           
18 03.05.10 080 (В) 10 км    4/0 средняя 
[Ac trans]
+15 +7.8 62 +15  1017  0.5  760  289    +19.8       
21 03.05.10 060 (СВ) 10 км    ясно 
+13.6 +7.6 67 +13  1016.7  -0.4  760  290           
00 04.05.10 080 (В) 10 км    4/0 верхняя 
[Ci fib]
+11.7 +8.6 81 +11  1016.3  -0.4  760  292           
03 04.05.10 060 (СВ) 10 км    10/1 1500 м средняя, верхняя 
[Sc|Ac lent|Ci fib]
+11.6 +6.1 69 +11  1016.6  0.3  760  293           
06 04.05.10 090 (В) 10 км    10/0 средняя, верхняя 
[Ac lent|Ci fib]
+15.7 +5.1 49 +15  1016.6  0.1  760  289  +11.4         
09 04.05.10 090 (В) 8-18{18}  10 км    9/5 1000 м средняя, верхняя 
[Sc diur, vesp|Ac trans|Ci fib]
+20.2 +5.8 39 +20  1016.4  -0.1  760  284           
12 04.05.10 100 (В) 8{19}  10 км    8/5 1000 м верхняя 
[Sc diur, vesp|Ci fib]
+20.7 +5.6 37 +21  1016.2  -0.2  760  284           
15 04.05.10 110 (В) 10 км    10/4 1000 м верхняя 
[Sc|Ci fib]
+19.6 +6.7 43 +20  1016.2  760  285           
18 04.05.10 090 (В) 10 км    10/0 верхняя 
[Ci fib]
+16.4 +7.1 54 +17  1016.4  0.1  760  288    +20.9       
21 04.05.10 080 (В) 10 км    10/0 верхняя 
[Ci fib]
+13.6 +7.3 66 +13  1016.5  760  290           
00 05.05.10 060 (СВ) 10 км    10/0 верхняя 
[Ci fib]
+11.8 +8 78 +13  1016.6  0.1  760  292           
03 05.05.10 050 (СВ) 10 км    4/0 средняя 
[Ac trans]
+9.6 +8 90 +11  1016.9  0.3  760  294           
06 05.05.10 110 (В) 10 км    4/4 1000 м 
[Cu hum]
+15 +8.8 66 +15  1016.7  -0.1  760  289  +9.6         
09 05.05.10 080 (В) 10 км    1/0 верхняя 
[Ci fib]
+18.8 +10 57 +20  1016.6  -0.1  760  285           
12 05.05.10 120 (ЮВ) 10 км    3/3 1000 м 
[Cu hum]
+23.7 +10 42 +25  1015.1  -1.4  759  280           
15 05.05.10 080 (В) 10 км    3/3 1000 м 
[Sc diur, vesp]
+24.2 +7.8 35 +24  1014  -1.1  758  279           
18 05.05.10 090 (В) 10 км    3/3 1000 м 
[Sc]
+19.1 +10.2 56 +21  1014.6  0.5  758  284    +24.6       
21 05.05.10 070 (В) 10 км    4/4 1000 м 
[Sc]
+16.8 +10 64 +19  1014.7  0.1  758  286           
00 06.05.10 210 (ЮЗ) 10 км    3/3 1000 м 
[Sc]
+13.7 +10.6 82 +16  1015.4  0.6  759  289           
03 06.05.10 010 (С) 24  0100 м    3/3 300 м верхняя 
[Sc|Ci fib]
+15.4 +10.3 72 +14    759  288           
06 06.05.10 220 (ЮЗ) 10 км    ясно 
+18.4 +11.1 62 +22  1015.3  759  284  +12.2         
09 06.05.10 120 (ЮВ) 10 км    ясно 
+21.5 +11.7 54 +25  1015  -0.2  759  281           
12 06.05.10 090 (В) 10 км    3/3 1000 м 
[Cu med, cong]
+25.4 +12.2 44 +29  1013.6  -1.4  758  277           
15 06.05.10 070 (В) 10 км    1/1 1000 м 
[Cu hum]
+25.7 +9 35 +26  1012.4  -1.2  757  277           
18 06.05.10 060 (СВ) 10 км    ясно 
+21 +9.2 47 +21  1012.4  757  282    +26.7       
21 06.05.10 070 (В) 10 км    ясно 
+17.8 +9.9 60 +20  1012.2  -0.3  757  284           
00 07.05.10 070 (В) 10 км    ясно 
+14.2 +9.8 75 +16  1011.7  -0.6  756  288           
03 07.05.10 070 (В) 10 км    ясно 
+13.3 +9.5 78 +15  1011.5  -0.2  756  289           
06 07.05.10 110 (В) 10 км    ясно 
+19.5 +11.5 60 +24  1011.3  756  282  +13.3         
09 07.05.10 120 (ЮВ) 10 км    ясно 
+25.6 +8.4 34 +26  1010.7  -0.6  755  277           
12 07.05.10 120 (ЮВ) 10 км    3/3 1000 м 
[Cu med, cong]
+28 +7 26 +28  1008.7  -2  754  274           
15 07.05.10 080 (В) 10 км    3/0 верхняя 
[Ci fib]
+26.6 +5.1 25 +27  1007.4  -1.2  753  276           
18 07.05.10 060 (СВ) 10 км    3/0 средняя 
[Ac trans]
+21.6 +5 34 +22  1007.8  0.3  753  281    +28.9       
21 07.05.10 тихо ()   10 км    6/0 верхняя 
[Ci fib]
+18.3 +7.4 49 +18  1008.2  0.3  754  283           
00 08.05.10 050 (СВ) 10 км    6/0 верхняя 
[Ci fib]
+15.2 +10 71 +18  1007.2  -1  753  286           
03 08.05.10 070 (В) 10 км    8/0 средняя, верхняя 
[Ac trans|Ci fib]
+13.6 +10.2 80 +16  1008  0.8  753  287           
06 08.05.10 140 (ЮВ) 10 км    8/0 средняя, верхняя 
[Ac trans|Ci fib]
+20.1 +11.7 58 +23  1008.1  0.2  754  281  +13.5         
09 08.05.10 220 (ЮЗ) 10 км    8/0 верхняя 
[Ci sp]
+26 +10 37 +27  1007.9  -0.1  753  275           
12 08.05.10 260 (З) 10 км    9/4 1000 м кучево-дожд., средняя, верхняя 
[Cb cap|Ac trans|Ci ing]
+27.5 +11.2 36 +30  1007.9  753  274           
15 08.05.10 270 (З) 10 км    9/4 1000 м средняя, верхняя 
[Sc diur, vesp|Ac trans|Ci fib]
+24.6 +11.5 44 +28  1008  0.1  754  276           
18 08.05.10 130 (ЮВ) 10 км    9/5 1000 м средняя, верхняя 
[Sc|Ac trans|Ci fib]
+20.5 +10.4 52 +22  1009.1  754  281    +28.3       
21 08.05.10 310 (СЗ) 10 км    ясно 
+17.4 +11.8 70 +21  1009.7  0.5  755  284           
00 09.05.10 240 (ЮЗ) 10 км    8/0 средняя 
[Ac trans]
+15 +12.6 86 +21  1009.8  0.1  755  286           
03 09.05.10 250 (З) 10 км    9/3 1500 м средняя 
[Sc|Ac trans]
+14.5 +12.5 88 +20  1010  0.2  755  286           
06 09.05.10 150 (ЮВ) 10 км    10/3 1500 м средняя, верхняя 
[Sc|Ac trans|Ci fib]
+18.5 +13.2 71 +25  1010.1  0.1  755  282  +14         
09 09.05.10 210 (ЮЗ) 10 км    8/5 1000 м кучево-дожд., средняя, верхняя 
[Cb cap|Ac trans|Ci fib]
+20.1 +13.6 66 +26  1009.6  -0.4  755  281           
12 09.05.10 130 (ЮВ) 10 км    5/3 1500 м верхняя 
[Cu med, cong|Ci fib]
+22.5 +12.9 55 +28  1008.1  -1.5  754  278           
15 09.05.10 тихо ()   10 км    10/3 1000 м верхняя 
[Cu med, cong|Ci fib]
+22.8 +13.5 56 +29  1006.7  -1.4  752  277           
18 09.05.10 060 (СВ) 10 км    8/3 1000 м верхняя 
[Sc diur, vesp|Ci fib]
+20 +14.1 69 +27  1006.2  -0.5  752  280    +23.6       
21 09.05.10 тихо ()   10 км    10/4 1000 м верхняя 
[Sc|Ci fib]
+17.6 +13.3 76 +23  1006.5  0.2  752  282           
00 10.05.10 250 (З) 10 км    10/3 1000 м средняя, верхняя 
[Sc|Ac trans|Ci fib]
+15.7 +12.6 82 +21  1006.2  -0.3  752  284           
03 10.05.10 250 (З) 10 км    10/3 1000 м верхняя 
[Sc|Ci fib]
+14.2 +12 87 +19  1006  -0.2  752  286           
06 10.05.10 280 (З) 10 км    10/4 1000 м средняя, верхняя 
[Sc|Ac trans|Cc]
+19.4 +13 66 +25  1005.9  752  280  +14.2         
09 10.05.10 250 (З) 4000 м  слаб. ливневой дождь  10/10 1000 м кучево-дожд. 
[Cb cap]
+18.1 +13.7 75 +24  1007.9  1.9  753  282           
12 10.05.10 260 (З) 4000 м  слаб. ливневой дождь  10/10 600 м кучево-дожд. 
[Cb cap]
+16.6 +14.9 90 +25  1008.7  0.8  754  283           
15 10.05.10 230 (ЮЗ) 10 км  {ливн. осадки}  10/10 600 м кучево-дожд. 
[Cb cap]
+18.2 +14.4 78 +26  1009.3  0.6  754  282           
18 10.05.10 270 (З) 10 км  {ливн. осадки}  10/10 600 м 
[Sc]
+17 +13.6 80 +24  1010.5  1.2  755  284    +20.8     
21 10.05.10 270 (З) 10 км    9/9 1000 м 
[Sc]
+16.1 +14 87 +24  1010.5  755  285           
00 11.05.10 060 (СВ) 10 км    9/9 1000 м 
[Sc]
+15.5 +12.7 83 +22  1011.3  0.8  756  286           
03 11.05.10 070 (В) 10 км    10/10 600 м кучево-дожд. 
[Cb cap]
+15.3 +13.7 90 +22  1012.2  0.9  757  286           
06 11.05.10 120 (ЮВ) 10 км    10/8 1000 м кучево-дожд., средняя 
[Cb cap|Ac und]
+17.4 +13.3 77 +24  1013.1  0.9  757  284  +15         
09 11.05.10 230 (ЮЗ) 10 км  слаб. ливневой дождь  10/8 1000 м кучево-дожд., средняя 
[Cb cap|Ac und]
+17.8 +13 73 +23  1013.5  0.4  758  284           
12 11.05.10 230 (ЮЗ) 10 км  {ливн. осадки}  8/5 1000 м кучево-дожд., средняя, верхняя 
[Cb cap|Ac trans|Cc]
+20.7 +11.8 57 +24  1013.6  0.2  758  282           
15 11.05.10 220 (ЮЗ) 10 км    6/3 1000 м средняя, верхняя 
[Cu med, cong|Ac trans|Cc]
+19.2 +10.7 58 +22  1014  0.4  758  283           
18 11.05.10 230 (ЮЗ) 10 км    6/6 1000 м 
[Sc diur, vesp]
+16.2 +11.8 75 +20  1015.2  1.1  759  286    +21.3  0.4     
21 11.05.10 210 (ЮЗ) 10 км    3/0 средняя 
[Ac trans]
+14.6 +11.7 83 +18  1015.5  0.3  759  288           
00 12.05.10 260 (З) 10 км    4/0 средняя 
[Ac trans]
+13.8 +11.5 86 +18  1015.3  -0.3  759  289           
03 12.05.10 тихо ()   10 км    9/9 1000 м 
[Sc]
+13.6 +12.3 92 +18  1015.6  0.3  759  289           
06 12.05.10 220 (ЮЗ) 10 км    8/6 1000 м кучево-дожд., средняя 
[Cb cap|Ac trans]
+16.4 +12.4 77 +21  1015.8  0.3  759  286  +13         
09 12.05.10 210 (ЮЗ) 10 км    9/9 1000 м кучево-дожд. 
[Cb cap]
+18.5 +13 70 +24  1015.4  -0.3  759  284           
12 12.05.10 220 (ЮЗ) 10 км  гроза без осадков  9/8 1000 м кучево-дожд., средняя 
[Cb cap|Ac trans]
+20.8 +9.7 49 +21  1015  -0.4  759  282           
15 12.05.10 290 (З) 10 км  {гроза, ливн. осадки}  6/3 1000 м кучево-дожд., средняя, верхняя 
[Cb cap|Ac trans|Ci fib]
+20.2 +12.4 61 +24  1014.7  -0.3  758  282           
18 12.05.10 030 (СВ) 10 км  {гроза, ливн. осадки}  8/6 1000 м кучево-дожд., средняя 
[Cb cap|Ac trans]
+17.2 +10.5 65 +21  1015.2  0.4  759  286    +22.4     
21 12.05.10 290 (З) 10 км    6/6 1000 м 
[Sc]
+15.2 +13 87 +22  1014.8  -0.4  758  287           
00 13.05.10 330 (СЗ) 10 км    ясно 
+14.3 +13.4 94 +22  1014.6  -0.2  758  288           
03 13.05.10 тихо ()   4000 м  дымка  8/0 средняя 
[Ac trans]
+12.7 +12 96 +16  1015.1  0.4  759  290           
06 13.05.10 тихо ()   10 км    3/3 1500 м 
[Sc diur, vesp]
+17.3 +13.4 78 +23  1015.2  0.2  759  285  +12.7         
09 13.05.10 060 (СВ) 10 км    4/4 1500 м 
[Cu med, cong]
+22.4 +12.2 52 +26  1014.8  -0.3  759  280           
12 13.05.10 210 (ЮЗ) 10 км    3/3 1500 м 
[Cu hum]
+24.3 +7.4 34 +24  1014  -0.8  758  279           
15 13.05.10 310 (СЗ) 10 км    1/1 1500 м 
[Sc diur, vesp]
+25 +7.7 33 +25  1013.2  -0.8  757  278           
18 13.05.10 тихо ()   10 км    3/0 верхняя 
[Ci fib]
+20.2 +12 59 +24  1013.2  757  282    +25.2       
21 13.05.10 тихо ()   10 км    3/0 средняя 
[Ac cast]
+16.6 +13 79 +22  1012.9  -0.4  757  285           
00 14.05.10 070 (В) 10 км    ясно 
+15.3 +11.5 78 +20  1012.4  -0.5  757  287           
03 14.05.10 тихо ()   10 км    ясно 
+13.4 +11.5 88 +16  1011.9  -0.6  756  288           
06 14.05.10 070 (В) 10 км    3/0 верхняя 
[Ci fib]
+21.5 +13.9 62 +28  1011.2  -0.5  756  280  +13.3         
09 14.05.10 160 (Ю) 10 км    4/1 1500 м верхняя 
[Cu hum|Ci fib]
+24.6 +13.9 51 +31  1010.7  -0.5  755  277           
12 14.05.10 010 (С) 10 км    10/1 1500 м верхняя 
[Cu hum|Ci fib]
+27.2 +10.3 35 +29  1010.1  -0.6  755  275           
15 14.05.10 340 (С) 10 км    10/0 средняя, верхняя 
[Ac trans|Ci fib]
+27.4 +10.6 35 +29  1009.4  -0.7  755  274           
18 14.05.10 тихо ()   10 км    10/4 1000 м кучево-дожд., средняя, верхняя 
[Cb cap|Ac trans|Cs]
+23.5 +14 55 +30  1009.7  0.3  755  277    +28.7       
21 14.05.10 260 (З) 10 км    10/5 1000 м средняя 
[Sc|Ac und]
+20.8 +13.9 65 +27  1009.4  -0.3  755  280           
00 15.05.10 060 (СВ) 10 км    10/8 1000 м кучево-дожд., средняя 
[Cb cap|Ac und]
+18.9 +13 69 +25  1009.9  0.5  755  282           
03 15.05.10 010 (С) 66  0100 м    3/3 100 м кучево-дожд., верхняя 
[Cb cap|Ci fib]
+13   1010.9  0.9  756             
06 15.05.10 130 (ЮВ) 10 км    1/1 1000 м 
[Cu hum]
+22.5 +13.1 55 +28  1010.8  756  279  +16.6         
09 15.05.10 240 (ЮЗ) 10 км    8/5 1000 м кучево-дожд., средняя, верхняя 
[Cb cap|Ac trans|Cc]
+26.5 +14.1 46 +33  1011.7  0.9  756  275           
12 15.05.10 240 (ЮЗ) 10 км    6/3 1000 м средняя 
[Cu hum|Ac trans]
+28 +9.3 31 +28  1011.1  -0.6  756  275           
15 15.05.10 240 (ЮЗ) 10 км    10/0 верхняя 
[Ci]
+25.5 +11.4 41 +28  1011.3  0.2  756  277           
18 15.05.10 250 (З) 10 км    9/8 1000 м средняя 
[Sc|Ac und]
+22.1 +12.2 53 +26  1011.6  0.3  756  280    +28.8       
21 15.05.10 280 (З) 10 км    3/0 средняя 
[Ac trans]
+20 +12.7 63 +25  1010.9  -0.7  756  281           
00 16.05.10 210 (ЮЗ) 10 км    10/0 средняя 
[Ac und]
+19 +12.6 66 +25  1009.3  -1.6  754  282           
03 16.05.10 150 (ЮВ) 10 км    9/8 1000 м средняя 
[Sc|Ac und]
+18.2 +12.8 71 +24  1008.4  -1  754  282           
06 16.05.10 080 (В) 10 км    10/10 1500 м 
[Sc]
+20.6 +14.2 67 +28  1007.6  -0.7  753  279  +17.6         
09 16.05.10 160 (Ю) 10 км  {дождь}  8/1 1000 м средняя 
[Sc|Ac cast]
+25.2 +13.8 49 +32  1007.6  0.1  753  275           
12 16.05.10 110 (В) 10 км  {дождь}  3/0 средняя 
[Ac trans]
+28 +12.9 39 +33  1006.4  -1.2  752  273           
15 16.05.10 220 (ЮЗ) 10 км    1/0 средняя 
[Ac cast]
+28.9 +14.1 40 +36  1005.5  -0.9  752  271           
18 16.05.10 120 (ЮВ) 10 км    3/0 средняя 
[Ac trans]
+24 +10.7 43 +26  1006  0.4  752  277    +29.7       
21 16.05.10 150 (ЮВ) 10 км  {гроза, ливн. осадки}  10/5 1500 м кучево-дожд., средняя, верхняя 
[Cb cap|Ac trans|Ci fib]
+23.4 +10.9 45 +26  1005.7  -0.3  752  277           
00 17.05.10 160 (Ю) 10 км  в посл. час гроза{ливн. осадки}  9/9 1000 м кучево-дожд. 
[Cb cap]
+20 +14.9 72 +28  1005.7  752  279           
03 17.05.10 360 (С) 10 км    9/9 1000 м кучево-дожд. 
[Cb cap]
+17.8 +13.9 78 +26  1006  0.2  752  282           
06 17.05.10 310 (СЗ) 10 км    9/9 1000 м 
[Sc]
+21.5 +14.5 64 +29  1005.6  -0.3  752  278  +17.8       
09 17.05.10 020 (С) 10 км    9/3 1500 м средняя 
[Cu med, cong|Ac trans]
+25.3 +11.9 43 +29  1005.1  -0.4  751  275           
12 17.05.10 330 (СЗ) 4000 м  гроза, ливневой дождь  10/10 1000 м кучево-дожд. 
[Cb cap]
+21.6 +10.3 49 +23  1006.1  0.9  752  279           
15 17.05.10 290 (З) 10 км  {гроза, ливн. осадки}  3/0 средняя 
[Ac trans]
+19.6 +11.4 59 +23  1006.8  0.7  753  281           
18 17.05.10 160 (Ю) 10 км  {гроза, ливн. осадки}  3/0 средняя 
[Ac trans]
+17.7 +12.7 73 +24  1009.7  2.8  755  283    +27.9  0.4     
21 17.05.10 тихо ()   10 км    ясно 
+15 +12.8 87 +20  1009.9  0.2  755  286           
00 18.05.10 240 (ЮЗ) 10 км    4/3 1000 м 
[Sc]
+13.3 +10.4 83 +16  1010.2  0.2  755  288           
03 18.05.10 220 (ЮЗ) 10 км    3/3 1000 м 
[Sc]
+13.6 +9 74 +14  1010.7  0.5  755  288           
06 18.05.10 280 (З) 10 км    3/0 средняя 
[Ac trans]
+20.9 +10.3 51 +22  1010.2  -0.3  755  281  +13         
09 18.05.10 110 (В) 10 км    5/3 1000 м средняя 
[Cu hum|Ac trans]
+23.4 +10.6 44 +25  1009.8  -0.4  755  278           
12 18.05.10 060 (СВ) 10 км    5/5 1000 м 
[Cu med, cong]
+24.5 +8.8 37 +25  1008.3  -1.7  754  277           
15 18.05.10 060 (СВ) 10 км    8/3 1000 м средняя, верхняя 
[Sc diur, vesp|Ac cast|Ci fib]
+14.2 +10.5 78 +16  1007.4  -0.9  753  287           
18 18.05.10 040 (СВ) 10 км    10/4 1000 м средняя, верхняя 
[Sc|Ac trans|Ci fib]
+21.2 +12.8 59 +26  1007.3  -0.2  753  279    +25.9       
21 18.05.10 050 (СВ) 10 км    10/6 1000 м кучево-дожд., средняя 
[Cb cap|Ac und]
+19.8 +13.5 67 +27  1006.1  -1.2  752  280           
00 19.05.10 270 (З) 10 км  зарница  10/8 1000 м кучево-дожд., средняя 
[Cb cap|Ac und]
+18.3 +13.1 72 +23  1007.1  0.9  753  282           
03 19.05.10 240 (ЮЗ) 10 км  {гроза, ливн. осадки}  8/3 600 м средняя, верхняя 
[Sc|Ac trans|Ci fib]
+14 +12.5 91 +19  1007.8  0.7  753  286           
06 19.05.10 270 (З) 10 км  {гроза, ливн. осадки}  9/1 1000 м средняя, верхняя 
[Cu med, cong|Ac cast|Ci fib]
+18.4 +10.9 62 +21  1009.2  1.4  754  283  +14       
09 19.05.10 270 (З) 10 км    8/8 1000 м 
[Cu med, cong]
+21.1 +9 46 +21  1009.9  0.8  755  281           
12 19.05.10 270 (З) 10 км    9/9 1000 м кучево-дожд. 
[Cb cap]
+20.3 +11 55 +23  1011.1  1.2  756  281           
15 19.05.10 280 (З) 10 км    6/1 1000 м верхняя 
[Cu med, cong|Ci fib]
+21.1 +10.3 50 +22  1011.8  0.7  756  281           
18 19.05.10 270 (З) 10 км    4/1 1000 м средняя, верхняя 
[Sc|Ac lent|Ci fib]
+17.4 +11.5 68 +21  1013.6  1.7  758  285    +22.2       
21 19.05.10 240 (ЮЗ) 10 км    ясно 
+15.3 +11.2 77 +19  1013.6  758  287           
00 20.05.10 260 (З) 10 км    8/8 1500 м 
[Sc]
+14.6 +10.4 76 +16  1013.8  0.2  758  288           
03 20.05.10 250 (З) 10 км    5/3 1500 м средняя 
[Sc|Ac trans]
+14.1 +10.3 78 +16  1014.2  0.3  758  289           
06 20.05.10 260 (З) 10 км    6/5 1000 м средняя 
[Sc|Ac trans]
+17.8 +11.5 67 +21  1014.4  0.3  758  285  +13.8         
09 20.05.10 280 (З) 10 км    8/8 1000 м 
[Cu med, cong]
+20.6 +10.5 52 +22  1014.2  -0.1  758  282           
12 20.05.10 300 (СЗ) 10 км  в посл. час ливневой дождь  8/8 1000 м кучево-дожд. 
[Cb cap]
+21.6 +10.7 50 +23  1014.2  758  281           
15 20.05.10 290 (З) 10 км    6/6 1000 м кучево-дожд. 
[Cb cap]
+20.8 +10.5 52 +22  1014.1  -0.1  758  282           
18 20.05.10 270 (З) 10 км    3/3 1000 м кучево-дожд. 
[Cb cap]
+17.5 +11.4 67 +21  1014.3  0.1  758  285    +22.9  0.1     
21 20.05.10 260 (З) 10 км    ясно 
+14.9 +11 77 +18  1014.6  0.3  758  288           
00 21.05.10 220 (ЮЗ) 10 км    ясно 
+12.7 +11.2 91 +17  1014.3  -0.4  758  290           
03 21.05.10 210 (ЮЗ) 10 км    4/0 верхняя 
[Ci fib]
+12.1 +11.1 94 +15  1014.5  0.2  758  290           
06 21.05.10 270 (З) 10 км    10/6 1000 м верхняя 
[Cu med, cong|Ci]
+17.8 +13.4 75 +24  1014.5  0.1  758  284  +12.1         
09 21.05.10 270 (З) 10 км    9/6 1000 м кучево-дожд., верхняя 
[Cb cap|Ci]
+21 +11.2 53 +24  1014.2  -0.2  758  282           
12 21.05.10 340 (С) 10 км    9/6 1000 м кучево-дожд., средняя, верхняя 
[Cb cap|Ac trans|Ci ing]
+21.2 +10.9 52 +23  1014  -0.2  758  281           
15 21.05.10 250 (З) 10 км    8/4 1000 м кучево-дожд., средняя, верхняя 
[Cb cap|Ac trans|Cc]
+19.2 +10.7 58 +22  1014.3  0.3  758  283           
18 21.05.10 210 (ЮЗ) 10 км    3/0 средняя 
[Ac trans]
+15.8 +12.9 83 +22  1014.6  0.2  758  286    +21.8       
21 21.05.10 270 (З) 10 км    4/3 1000 м средняя 
[Sc|Ac trans]
+14.6 +13.1 91 +21  1014.4  -0.2  758  287           
00 22.05.10 тихо ()   10 км    4/0 верхняя 
[Ci]
+12.6 +11.4 92 +15  1013.7  -0.8  758  290           
03 22.05.10 тихо ()   10 км    10/3 1000 м верхняя 
[Sc|Ci]
+12.8 +11.7 93 +16  1013  -0.7  757  289           
06 22.05.10 320 (СЗ) 10 км    8/4 1000 м верхняя 
[Cu med, cong|Ci fib]
+18.6 +11.9 65 +24  1012.7  -0.2  757  283  +12.2         
09 22.05.10 010 (С) 10 км    6/4 1000 м верхняя 
[Cu med, cong|Ci fib]
+20.7 +10.2 51 +22  1011.7  -0.9  756  281           
12 22.05.10 250 (З) 10 км    6/4 1000 м верхняя 
[Cu med, cong|Ci fib]
+23.4 +9.2 40 +23  1010.5  -1.2  755  279           
15 22.05.10 030 (СВ) 10 км    10/6 1000 м кучево-дожд., верхняя 
[Cb cap|Ci fib]
+22.5 +11.7 50 +26  1010.1  -0.4  755  279           
18 22.05.10 050 (СВ) 10 км  слаб. ливневой дождь{гроза}  10/6 1000 м кучево-дожд., верхняя 
[Cb cap|Ci fib]
+18.7 +12.6 68 +25  1010.7  0.5  755  282    +24.3       
21 22.05.10 060 (СВ) 10 км  {ливн. осадки}  10/3 1000 м верхняя 
[Sc|Ci fib]
+16.3 +12.9 80 +23  1010.4  -0.3  755  285           
00 23.05.10 тихо ()   10 км  {ливн. осадки}  5/3 1000 м верхняя 
[Sc|Ci fib]
+13.9 +12.1 89 +18  1009.8  -0.4  755  287           
03 23.05.10 тихо ()   10 км    10/3 1000 м средняя, верхняя 
[Sc|Ac trans|Ci fib]
+13.4 +12.1 92 +17  1008.5  -1.3  754  287           
06 23.05.10 060 (СВ) 10 км    9/9 1000 м 
[Sc]
+16.4 +13.5 83 +23  1008.4  754  284  +12.5    0.1     
09 23.05.10 330 (СЗ) 10 км  в посл. час дождь  9/9 1000 м 
[Sc]
+18.5 +13.2 71 +26  1008  -0.4  753  282           
12 23.05.10 150 (ЮВ) 10 км  {дождь}  8/3 1000 м средняя, верхняя 
[Cu med, cong|Ac cast|Ci sp]
+23.4 +10.9 45 +26  1005.9  -2  752  277           
15 23.05.10 290 (З) 10 км    10/6 1000 м кучево-дожд., верхняя 
[Cb cap|Ci fib]
+23.5 +9.8 42 +24  1005.4  -0.5  752  277           
18 23.05.10 010 (С) 10 км  {ливн. осадки}  10/4 1000 м кучево-дожд., средняя, верхняя 
[Cb cap|Ac trans|Ci fib]
+18.3 +13.5 74 +25  1006.6  1.1  752  281    +24.8  0.3     
21 23.05.10 160 (Ю) 4000 м  гроза, ливневой дождь  10/10 600 м кучево-дожд. 
[Cb cap]
+14.6 +13.5 93 +20  1008.1  1.5  753  285           
00 24.05.10 240 (ЮЗ) 10 км  гроза без осадков{ливн. осадки}  10/10 600 м кучево-дожд. 
[Cb cap]
+15.2 +13.6 90 +22  1008.1  753  285           
03 24.05.10 230 (ЮЗ) 10 км    9/0 средняя 
[Ac trans]
+15 +13.7 92 +22  1008.3  0.2  754  285           
06 24.05.10 250 (З) 10 км    8/8 600 м 
[Cu med, cong]
+18.8 +12.7 68 +24  1009.4  0.9  754  282  +14.6         
09 24.05.10 280 (З) 10 км  гроза без осадков  10/10 600 м кучево-дожд. 
[Cb cap]
+19.6 +9.2 51 +20  1009.8  0.7  755  282           
12 24.05.10 220 (ЮЗ) 10 км  гроза без осадков{ливн. осадки}  10/8 600 м кучево-дожд., верхняя 
[Cb cap|Ci ing]
+18.2 +12.6 70 +24  1010.7  0.8  755  283           
15 24.05.10 170 (Ю) 10 км  в посл. час ливневой дождь{гроза}  9/9 600 м кучево-дожд. 
[Cb cap]
+19.1 +14.7 76 +28  1010.7  0.1  755  281           
18 24.05.10 220 (ЮЗ) 10 км  {гроза, ливн. осадки}  3/0 средняя 
[Ac trans]
+16.2 +13.1 82 +22  1011.5  0.7  756  285    +21.9     
00 25.05.10 240 (ЮЗ) 10 км    4/0 верхняя 
[Ci fib]
+15.3 +12.7 84 +21  1011.8    756  286           
03 25.05.10 240 (ЮЗ) 10 км    3/0 верхняя 
[Ci fib]
+15.5 +12.8 84 +21  1012.5  0.7  757  286           
06 25.05.10 240 (ЮЗ) 10 км    3/1 1000 м кучево-дожд., средняя, верхняя 
[Cb calv|Ac trans|Cc]
+20.3 +12.7 62 +25  1012.7  0.3  757  281  +14.6         
09 25.05.10 240 (ЮЗ) 10 км    6/4 1000 м кучево-дожд., верхняя 
[Cb cap|Cc]
+22.8 +11.9 50 +26  1012.9  0.2  757  279           
12 25.05.10 240 (ЮЗ) 10 км    6/3 1000 м верхняя 
[Cu med, cong|Ci ing]
+22.8 +10.5 46 +24  1013.2  0.3  757  280           
15 25.05.10 230 (ЮЗ) 10 км    3/3 1000 м верхняя 
[Cu hum|Ci ing]
+21.2 +10.2 49 +22  1013.5  0.3  758  281           
18 25.05.10 210 (ЮЗ) 10 км    3/0 верхняя 
[Ci fib]
+17.2 +11.9 71 +21  1014.1  0.5  758  285    +23.9       
21 25.05.10 220 (ЮЗ) 10 км    ясно 
+15.8 +12.2 79 +20  1013.7  -0.4  758  286           
00 26.05.10 220 (ЮЗ) 10 км    ясно 
+16.2 +11.4 73 +19  1013.2  -0.5  757  286           
03 26.05.10 220 (ЮЗ) 10 км    ясно 
+15.5 +12 80 +20  1012.7  -0.5  757  286           
06 26.05.10 250 (З) 10 км    3/0 средняя, верхняя 
[Ac cast|Ci fib]
+20.7 +12.4 59 +25  1012.8  0.2  757  281  +15.2         
09 26.05.10 240 (ЮЗ) 10 км    8/3 1000 м верхняя 
[Cu med, cong|Ci]
+23.8 +11.9 47 +27  1012.9  0.1  757  278           
12 26.05.10 220 (ЮЗ) 10 км    4/3 1000 м 
[Cu hum]
+23.7 +12.8 50 +29  1013.1  0.2  757  278           
15 26.05.10 210 (ЮЗ) 10 км    10/0 верхняя 
[Ci fib]
+22.3 +11.4 50 +25  1013.5  0.4  758  280           
18 26.05.10 220 (ЮЗ) 10 км    10/0 средняя, верхняя 
[Ac trans|Ci fib]
+18.5 +11.4 63 +22  1013.7  0.1  758  284    +24.9       
21 26.05.10 220 (ЮЗ) 10 км    10/0 средняя, верхняя 
[Ac trans|Ci fib]
+18.5 +10.7 60 +21  1013.9  0.2  758  284           
00 27.05.10 230 (ЮЗ) 10 км    3/0 средняя 
[Ac trans]
+17.5 +12.1 71 +22  1013.7  -0.2  758  285           
03 27.05.10 220 (ЮЗ) 10 км    1/0 верхняя 
[Ci fib]
+17 +13.2 78 +22  1013.6  -0.1  758  285           
06 27.05.10 230 (ЮЗ) 10 км    3/0 средняя 
[Ac trans]
+22.1 +12.6 55 +27  1013.9  0.4  758  280  +16.6         
09 27.05.10 230 (ЮЗ) 10 км    3/3 1000 м верхняя 
[Cu hum|Ci fib]
+26 +13 45 +31  1013.6  -0.3  758  276           
12 27.05.10 220 (ЮЗ) 10 км    5/3 1000 м верхняя 
[Cu hum|Cc]
+27.1 +10.4 35 +29  1013.1  -0.5  757  276           
15 27.05.10 240 (ЮЗ) 10 км    ясно 
+25.6 +9.2 35 +26  1012.8  -0.3  757  277           
18 27.05.10 250 (З) 10 км    ясно 
+21.4 +12.8 58 +26  1013.1  0.3  757  280    +28       
21 27.05.10 210 (ЮЗ) 10 км    ясно 
+18.1 +12.2 68 +24  1013.1  -0.1  757  284           
00 28.05.10 240 (ЮЗ) 10 км    ясно 
+15.2 +10.5 73 +19  1013.3  0.2  757  287           
03 28.05.10 200 (Ю) 10 км    3/0 верхняя 
[Ci fib]
+15.1 +10.2 73 +17  1013.3  757  287           
06 28.05.10 040 (СВ) 10 км    ясно 
+23 +10.5 45 +25  1013.4  0.1  758  280  +14.1         
09 28.05.10 300 (СЗ) 10 км    3/0 верхняя 
[Ci fib]
+26 +7.1 30 +26  1013.2  -0.2  757  278           
12 28.05.10 240 (ЮЗ) 10 км    3/3 1000 м 
[Cu med, cong]
+29 +11.3 33 +32  1012.3  -0.8  757  274           
15 28.05.10 320 (СЗ) 10 км    4/4 1000 м кучево-дожд. 
[Cb cap]
+28.1 +12.4 38 +32  1012  -0.4  756  274           
18 28.05.10 350 (С) 10 км    3/0 
+23.2 +11.9 49 +27  1013.3  1.3  757  279    +30.2       
21 28.05.10 тихо ()   10 км    1/0 средняя 
[Ac trans]
+19.6 +10.7 56 +21  1014.1  0.8  758  283           
03 29.05.10 260 (З) 10 км    4/0 средняя 
[Ac trans]
+16.4 +12.6 78 +23  1014.6  0.6  758  286           
06 29.05.10 200 (Ю) 10 км    ясно 
+23.2 +14 56 +30  1014.5  758  279  +16         
09 29.05.10 230 (ЮЗ) 10 км    ясно 
+27.6 +9.4 32 +28  1014.2  -0.3  758  276           
12 29.05.10 240 (ЮЗ) 10 км    4/4 1000 м 
[Cu med, cong]
+29.9 +10.3 30 +31  1013.3  -0.8  758  273           
15 29.05.10 330 (СЗ) 10 км    3/3 1000 м 
[Cu hum]
+28.6 +12.6 37 +33  1013.1  -0.3  757  274           
18 29.05.10 350 (С) 10 км    6/0 средняя 
[Ac As]
+24.4 +16.4 61 +35  1014  0.9  758  277    +30.6       
21 29.05.10 350 (С) 10 км    ясно 
+21.2 +15.5 70 +30  1014.1  0.1  758  280           
00 30.05.10 300 (СЗ) 10 км    ясно 
+18.5 +15.6 83 +29  1013.8  -0.3  758  283           
03 30.05.10 290 (З) 10 км    3/3 1000 м 
[Sc]
+18 +17 94 +31  1014  0.1  758  283           
06 30.05.10 140 (ЮВ) 10 км    3/0 верхняя 
[Ci fib]
+24.8 +16.2 59 +35  1014.3  0.4  758  277  +17.5         
09 30.05.10 150 (ЮВ) 10 км    10/1 1500 м средняя, верхняя 
[Cu hum|Ac cast|Cc]
+28.1 +14.8 44 +36  1014.2  -0.1  758  274           
12 30.05.10 040 (СВ) 10 км  гроза без осадков  10/5 1000 м кучево-дожд., средняя, верхняя 
[Cb cap|Ac trans|Ci fib]
+28.5 +15.5 45 +38  1013.4  -0.7  758  273           
15 30.05.10 тихо ()   10 км  {гроза}  8/4 1000 м кучево-дожд., средняя, верхняя 
[Cb cap|Ac trans|Ci fib]
+26.6 +14.9 49 +35  1013.1  -0.4  757  275           
18 30.05.10 210 (ЮЗ) 10 км  {гроза}  5/3 1000 м верхняя 
[Sc diur, vesp|Ci fib]
+24.2 +16 60 +34  1013.5  0.4  758  277    +29.5       
21 30.05.10 140 (ЮВ) 10 км    ясно 
+21 +15.5 71 +30  1013.7  0.2  758  280           
00 31.05.10 160 (Ю) 10 км    ясно 
+18.6 +15.1 80 +28  1013.5  -0.3  758  283           
03 31.05.10 100 (В) 10 км    3/0 верхняя 
[Ci fib]
+17.8 +14.7 82 +27  1013.7  0.2  758  284           
06 31.05.10 130 (ЮВ) 10 км    3/0 верхняя 
[Ci fib]
+23.2 +13.4 54 +29  1013.7  0.1  758  279  +17.4         
09 31.05.10 170 (Ю) 10 км    9/0 верхняя 
[Ci fib]
+26.5 +15.1 50 +35  1013.5  -0.2  758  275           
12 31.05.10 210 (ЮЗ) 10 км    10/1 1000 м верхняя 
[Cu med, cong|Ci sp]
+28.7 +14.8 43 +37  1012.5  -0.9  757  273           
15 31.05.10 230 (ЮЗ) 10 км    8/0 верхняя 
[Ci fib]
+28.4 +14.5 43 +36  1012.1  -0.5  757  273           
18 31.05.10 060 (СВ) 10 км    4/0 верхняя 
[Ci fib]
+25 +13.6 49 +31  1012.1  757  277    +29.4       
21 31.05.10 240 (ЮЗ) 10 км    ясно 
+21.2 +15.4 69 +30  1011.9  -0.2  756  280           
00 01.06.10 240 (ЮЗ) 10 км    ясно 
+19.7 +17.9 89 +35  1011.7  -0.2  756  280           
03 01.06.10 тихо ()   10 км    10/0 средняя, верхняя 
[Ac trans|Ci fib]
+19.1 +17.1 88 +31  1012.1  0.4  757  281           
06 01.06.10 210 (ЮЗ) 10 км    10/0 средняя, верхняя 
[Ac und|Cc]
+23.7 +14.4 56 +31  1012.5  0.4  757  278  +18.5         
09 01.06.10 320 (СЗ) 10 км    9/5 1000 м средняя, верхняя 
[Sc|Ac und|Ci]
+26.4 +14.8 49 +34  1012.5  757  275           
Время (UTC), дата Ветер
(°,м/с) 
Видим.   Явления Облачность Т
(°С)
Тd
(°С)
f(%) Тe
(°С)
Pmin
(гПа)
dP
(гПа)
Po
(мм)
O2
(г/м3)
Тmin Tmax R s Состояние
почвы